DECAYED

RESURS P1 DEB, 60216 (Decayed)

Orbit data source: Space-Track

RESURS P1 DEB, 60216 was space debris in LEO originally from a Commonwealth of Independent States-origin launch on Tue, 25 Jun 2013 UTC launched from the Tyuratam Missile And Space Complex (TTMTR). Debris objects in space refer to the collection of defunct objects orbiting the Earth. Examples of debris include non-operational satellites, rocket bodies, and fragments generated from explosions, collisions, or faulty payload assembly.

Not visible in the next 10 days
RESURS P1 DEB details
Identifier
60216, 2013-030E
Orbit
Decayed
Last TLE update4 months ago
Origin
Flag of CISTSSKBP? (CIS)
ManufacturerTSSKBP?
MissionDecayed spacecraft
Bus & MotorUnknown
MassUnknown
Launch date (UTC)
2013-06-25 (11 years ago)
Launch vehicleUnknown
Launch site
Tyuratam Missile And Space Complex (TTMTR)
Object type
Payload
Rocket body
Debris
Shape & HBRUnknown
Radar Cross SectionLarge (>1 m²)

Expand to show TLE details & history

TLE from 4 months ago
0 RESURS P1 DEB
1 60216U 13030E   24244.87520159  .42780580  27137-5  40980-3 0  9998
2 60216  96.8796 294.7598 0007665 218.7824 259.3605 16.51241066 10331
Epoch: 2024-08-31T21:00Z
Definitive object data (Epoch: 2024-08-31T21:00:17.417Z)
Latitude61.28289°
Longitude-168.19306°
Altitude147.553 km
Speed7.823 km/s
True Right ascension08h 29m 37s
True Declination61° 07' 27"
Sunlit
Object was in daylight at TLE epoch
Visualization observer readout
Observer readout values are unavailable because the object's trajectory could not be propagated. This is usually caused when the trajectory data is faulty or the object's orbit has decayed.
Visualization observer readout
Observer readout values are unavailable because the object's trajectory could not be propagated. This is usually caused when the trajectory data is faulty or the object's orbit has decayed.
Orbital elements
Apogee altitude137.83 km
Perigee altitude127.849 km
Semi-major axis6,510.977 km
Eccentricity0.0007665
Inclination96.8796°
RAAN294.7598°
Arg. of periapsis218.7824°
True anomaly259.27419°
Mean anomaly259.3605°
Eccentric anomaly259.31734°
Mean motion4.13118 °/min
BSTAR0.0004098
Orbital period87.14 mins
Loading maneuver chart data...

RESURS P1 DEB Visibility forecast

Observer location: undefined°, undefined

This satellite is decayed
Span
Click to sort rows by Start time (UTC) header in descending order
Start Az.
Max El. time (UTC)
Max El. Az.
Max El.
End time (UTC)
End Az.
|